Location: Stara Lesna
(49.1528°N, 20.2911°E)
Time: 10:13:52
(UTC+02:00)

CZ-2D R/B - Pass Details

Date: 13 July 2020
Orbit: 792 x 845 km, 98.7° (Epoch: 05 August)

Event Time Altitude Azimuth Distance (km) Brightness Sun altitude
Rises 02:58:59 0° 11° (N) 3,342 6.7 -13.0°
Reaches altitude 10° 03:01:22 10° 7° (N) 2,414 5.7 -12.8°
Maximum altitude 03:06:33 54° 292° (WNW) 997 2.5 -12.4°
Enters shadow 03:10:41 16° 219° (SW) 2,022 3.5 -12.0°
